Terminal Aerodrome Forecast
Issued by NWS Chicago, IL

Home | Current Version | Previous Version | Graphics & Text | Print | Product List | Glossary Off
Versions: 1 2 3 4 5 6 7 8 9 10 11 12 13 14 15 16 17 18 19 20 21 22 23 24 25 26 27 28 29 30 31 32 33 34 35 36 37 38 39

000
FTUS43 KLOT 250800 AAA
TAFRFD
TAF AMD
KRFD 250850Z 2509/2606 28006KT 5SM BCFG BR BKN007 BKN015
      TEMPO 2509/2512 2SM BR
     FM251400 30007KT P6SM FEW250
     FM251800 30012G19KT P6SM SCT100
     FM260000 29008KT P6SM FEW080=

USA.gov is the U.S. government's official web portal to all federal, state and local government web resources and services.